Regional Weather Roundup
Issued by NWS

Home | Current Version | Previous Version | Text Only | Print | Product List | Glossary On
Versions: 1 2 3 4 5 6 7 8 9 10 11 12 13 14 15 16 17 18 19 20 21 22 23 24 25 26 27 28 29 30 31 32 33 34 35 36 37 38 39 40 41 42 43 44 45 46 47 48 49 50
000
ASHW40 PHFO 011743
RWRHI

WEATHER ROUNDUP FOR HAWAII
NATIONAL WEATHER SERVICE HONOLULU HI
700 AM HST SUN MAY 01 2016

THIS IS AN AUTOMATED REPORT THAT HAS NOT BEEN QUALITY CONTROLLED.

NOTE..."FAIR" INDICATES FEW OR NO CLOUDS BELOW 12,000 FEET WITH NO
SIGNIFICANT WEATHER AND/OR OBSTRUCTIONS TO VISIBILITY.

* - THESE SITES REPORT LIMITED FIELDS

HIZ001>004-011800-
KAUAI-NIIHAU-

CITY           SKY/WX    TMP DP  RH WIND       PRES   REMARKS
LIHUE APT      PTSUNNY   79  67  66 E17       30.14R
PORT ALLEN*      N/A     73 N/A N/A NE13        N/A
POIPU*           N/A     75 N/A N/A NE9G17      N/A
PRINCEVILLE*     N/A     72 N/A N/A SE5         N/A
KOKOLE POINT*  NOT AVBL
MOLOAA DAIRY*    N/A     72  70  94 SE1G9       N/A
WAIMEA HTS*      N/A     72  64  78 NE3         N/A
PUU OPAE*        N/A     66  61  82 N3G9        N/A
PUU LUA*       NOT AVBL
MAKAHA RIDGE*    N/A     66  61  82 S1          N/A
$$

HIZ005>011-011800-
OAHU-

CITY           SKY/WX    TMP DP  RH WIND       PRES   REMARKS
HONOLULU       PTSUNNY   75  65  70 NE10      30.11R
KALAELOA       MOSUNNY   71  63  75 NE3       30.12R
KANEOHE MCB    CLOUDY    76  66  71 E14G21    30.09R
WHEELER FIELD  PTSUNNY   70  66  88 NE3       30.12R
BELLOWS*         N/A    N/A N/A N/A NE20        N/A
KAHUKU*          N/A    N/A N/A N/A VRB9G18     N/A
WHEELER*         N/A    N/A N/A N/A NE3         N/A
WAIANAE HARBOR   N/A    N/A N/A N/A E5          N/A
DILLINGHAM*      N/A     90  82  79 MISG        N/A  HX 111
KAHUKU TRN*      N/A    N/A N/A N/A CALM        N/A
KAWAILOA*        N/A     70  63  78 E12G21      N/A
KII*             N/A     75  68  78 E18G24      N/A
MAKUA RANGE*     N/A     72  63  73 E5G10       N/A
OAHU FOREST NW   N/A     68  63  83 S16G28      N/A
SCHOFIELD BRK*   N/A     64  61  88 W1          N/A
SCHOFIELD S*   NOT AVBL
WAIANAE VLY*     N/A     70  64  83 SE3G9       N/A
KUAOKALA*        N/A     70  64  83 NE9G17      N/A
HONOULIUULI*   NOT AVBL
MOKUOLOE IS*   NOT AVBL
PALEHUA*         N/A     63  63 100 NE7G18      N/A
WAIAWA PHB*    NOT AVBL
$$

HIZ012>013-011800-
MOLOKAI-

CITY           SKY/WX    TMP DP  RH WIND       PRES   REMARKS
MOLOKAI AIRPT  MOSUNNY   72  65  78 NE9       30.12R
KALAUPAPA      NOT AVBL
MAKAPULAPAI*     N/A     75  68  78 E16G25      N/A
MOLOKAI 1*       N/A     77  70  78 E1G10       N/A
PUU ALII*        N/A     57  57 100 N3G12       N/A
$$

HIZ016-011800-
KAHOOLAWE-

CITY           SKY/WX    TMP DP  RH WIND       PRES   REMARKS
KAHOOLAWE*       N/A     70 N/A N/A SE1         N/A
HAKIOAWA*        N/A     75  67  75 MISG      30.51S
HONOKANAIA*      N/A     75  65  71 N7G23     30.01R
KANELOA*         N/A     73  66  78 NE15G37   30.13
KEALIALALO*    NOT AVBL
LUA MAKIKA*    NOT AVBL
$$

HIZ014>015-011800-
LANAI-

CITY           SKY/WX    TMP DP  RH WIND       PRES   REMARKS
LANAI CITY     FAIR      69  64  84 NE17      30.14R
LANAI 1*         N/A     72 N/A N/A NE17        N/A
$$

HIZ017>028-011800-
MAUI-

CITY           SKY/WX    TMP DP  RH WIND       PRES   REMARKS
KAHULUI        MOSUNNY   74  66  76 NE12      30.10R
KAPALUA-W MAUI MOSUNNY   73  64  73 E12       30.10R
HANA AIRPORT   NOT AVBL
HANA*            N/A     75 N/A N/A E5          N/A
HALEAKALA SUMM   N/A     46  10  23 NE18G31     N/A
MAALAEA BAY*     N/A     75 N/A N/A N12G18      N/A
HALEAKALA*     NOT AVBL
KAUPO GAP*       N/A     61  50  67 N13G23      N/A
KULA 1*          N/A     46  39  76 E3          N/A
$$

HIZ023>026-011800-
BIG ISLAND OF HAWAII COAST AND LOWER SLOPES-

CITY           SKY/WX    TMP DP  RH WIND       PRES   REMARKS
KAILUA KONA    SUNNY     77  61  57 NE9       30.05R
HILO           PTSUNNY   71  67  87 SW3       30.11R
HONOKAA*         N/A     68 N/A N/A VRB1        N/A
KAWAIHAE MWT*    N/A     79 N/A N/A E17G29      N/A
KAWAIHAE*        N/A     79 N/A N/A E18       30.04S
SOUTH POINT*     N/A     70 N/A N/A N13G22      N/A
UPOLU AIRPORT*   N/A    N/A N/A N/A E12G20      N/A
KAMUELA*       SUNNY     66  61  82 NE20      30.17F
HAKALAU*         N/A     51  51  99 E2          N/A
KALOKO-HONOKO*   N/A     75  63  64 CALM      30.05R
PALI 2*          N/A     64  59  82 S12G18      N/A
KEALAKOMO*       N/A     75  64  69 NE12G18     N/A
KAUPULEHU*       N/A     75  61  60 SE3         N/A
KAPAPALA*        N/A     67  61  81 E2          N/A
LOWER KAHUKU*    N/A     61 -40   1 VRB2G9      N/A
PUHE CS*         N/A     77  57  50 E15G28      N/A
PUHO CS*         N/A     72  57  60 E2          N/A
PTA KEAMUKU*     N/A     61  54  77 CALM        N/A
WAIKOLOA*        N/A     75  61  60 E15G25      N/A
$$

HIZ027>028-011800-
BIG ISLAND OF HAWAII INTERIOR AND SUMMMITS-

CITY           SKY/WX    TMP DP  RH WIND       PRES   REMARKS
BRADSHAW FIELD MOSUNNY   53  31  42 SE3       30.36R
MK VISITOR CEN   N/A     55   9  15 SW2         N/A
MAUNA KEA*       N/A     39 -15   9 NE24        N/A  WCI  28
MAUNA LOA*       N/A     43 -17   7 MISG        N/A
MAUNA LOA 1*   NOT AVBL
PTA KIPUKA*      N/A     70  64  83 SE5         N/A
PTA RANGE 17*    N/A     52  45  76 SE10G17     N/A
PTA WEST*        N/A     52  45  76 S5G12       N/A
NENE CABIN*      N/A     48  45  87 NE7G15      N/A
AHUMOA*          N/A     59  47  65 E3          N/A
PTA PORTABLE*  NOT AVBL
PUU MALI*        N/A     57  41  54 NW3G9       N/A
$$

HIC003-011800-
NORTHWEST ISLANDS-

CITY           SKY/WX    TMP DP  RH WIND       PRES   REMARKS
MIDWAY ISLAND  CLOUDY    70  66  88 E15       30.22S
MIDWAY NOS*      N/A     70 N/A N/A MISG      30.20S
FRENCH FRIGATE NOT AVBL
$$

PHZ110>124-180-011800-
BUOY REPORTS

STATION/POSITION TIME  TEMP    WIND        PRES    WAVE   SWELL
                       AIR SEA DIR/SP/G            HT/PER HT/DIR
                 (UTC) (F)     (DEG/KT/KT) (MB)    (FT/S) (FT/D)
BUOY 51001       1700   77 79   70/ 17/ 21 1019.4R
BUOY 51101       1650   75 76   60/ 16/ 17 1021.1R   6/11   5/330
BUOY 51100       NOT AVBL
BUOY 51002       1650   77 78   80/ 17/ 21 1016.1R   8/10   7/ 90
BUOY 51003       1650   77 78   60/ 17/ 19 1017.4R   6/10   5/ 70
BUOY 51004       1650   79 79   70/ 16/ 19 1017.0R   8/ 9   7/ 90
BARBERS PT BUOY  NOT AVBL
WAIMEA BAY BUOY  1704      78                N/A     5/11   3/320
KAILUA BAY BUOY  1711      78                N/A     6/ 9   2/ 80
LANAI BUOY       1715      78                N/A     3/12   2/230
BARBERS PT 2     1703      78                N/A     4/11   2/200
PAUWELA MAUI     1709      76                N/A     6/11   3/320
HILO             1712      77                N/A     7/ 9   2/ 60
KANEOHE BAY BUOY 1706      77                N/A     6/ 6   2/360
HANALEI KAUAI    NOT AVBL
KAHULUI HARBOR   1700   75 78   50/ 12/ 16 1019.2R
HONOLULU HARBOR  1700   75 78   70/  3/  8 1020.1R
KILO NALU        NOT AVBL
HILO HARBOR      1700   71 76  220/  4/  6 1019.3R
MOKUOLOE         1600   76 78   80/ 12/ 14 1019.0R
NAWILIWILI       1700   76 80   60/ 13/ 16 1020.0R
WHOTS BUOY       NOT AVBL
BUOY 51028       NOT AVBL
$$

......................KEY........................................
  SKY/WX - SKY CONDITIONS/PRESENT WEATHER
  TMP    - TEMPERATURE IN FAHRENHEIT
  DWPT   - DEWPOINT IN FAHRENHEIT
  RH     - RELATIVE HUMIDITY IN PERCENT
  WIND   - DIRECTION AND SPEED /MPH FOR ISLANDS...KTS FOR BUOYS/
  PRES   - MEAN SEA LEVEL PRESSURE IN INCHES OF HG
  VSB    - VISIBILITY IN MILES
  HX     - HEAT INDEX
  WCI    - WIND CHILL INDEX
  VRB    - VARIABLE WIND DIRECTION
  N/A    - NOT AVAILABLE



USA.gov is the U.S. government's official web portal to all federal, state and local government web resources and services.